Location: Burland Observatory
(39.4088°N, 105.4217°W)
Time: 17:23:23
(UTC-07:00)

Explorer 7 - Pass Details

Date: 14 December 2019
Orbit: 485 x 679 km, 50.3° (Epoch: 21 January)

Event Time Altitude Azimuth Distance (km) Brightness Sun altitude
Rises 17:53:02 0° 300° (WNW) 3,020 11.2 -13.9°
Reaches altitude 10° 17:55:48 10° 315° (NW) 2,113 10.1 -14.4°
Maximum altitude 17:59:46 24° 9° (N) 1,393 8.6 -15.1°
Enters shadow 18:01:29 20° 39° (NE) 1,547 8.6 -15.4°
